User: anonymous   Login
Location: Cluny
(50.9333°N, 112.8167°W)
Time: 04:47:06
(UTC-07:00)
Language:

Cosmos 1743 Rocket - Orbit

View from above orbital plane
View from above orbital plane
View from above satellite
View from above satellite

Ground track
Ground track

The orbit data is extracted from the following two-line orbital elements,

1 16720U 86034B   18055.87963427  .00000078  00000-0  66302-5 0  9999
2 16720  82.5562   5.9044 0019980 352.4760  59.5534 14.83324260716729
Epoch (UTC): 24 February 2018 21:06:40
Eccentricity: 0.0019980
inclination: 82.5562°
perigee height: 605 km
apogee height: 633 km
right ascension of ascending node: 5.9044°
argument of perigee: 352.4760°
revolutions per day: 14.83324260
mean anomaly at epoch: 59.5534°
orbit number at epoch: 71672

The dashed part of the orbit path shows where the satellite is in the earth's shadow,  

DLR